Location: �clusier
(49.9361°N, 2.7869°E)
Time: 04:27:25
(UTC+00:00)

Cosmos 1943 Rocket - Pass Details

Date: 28 October 2021
Orbit: 811 x 844 km, 71.0° (Epoch: 07 December)

Event Time Altitude Azimuth Distance (km) Brightness Sun altitude
Rises 20:51:44 0° 329° (NNW) 3,415 6.1 -41.0°
Reaches altitude 10° 20:54:12 10° 328° (NNW) 2,474 5.2 -41.3°
Enters shadow 20:55:43 19° 326° (NW) 1,914 4.5 -41.5°
